Monroe, MI

10:23 AM EDT on June 24, 2017 (GMT -0400)
Custer

Weather History for KTTF - November, 2012

Change the Weather History Date:

Sunday, November 4, 2012

  Actual Average Record
Temperature  
Mean Temperature 37 °F -  
Max Temperature 41 °F 54 °F 78 °F (2003)
Min Temperature 33 °F 36 °F 18 °F (1951)
Degree Days  
Heating Degree Days 28    
Moisture  
Dew Point 28 °F    
Average Humidity 70    
Maximum Humidity 87    
Minimum Humidity 57    
Precipitation  
Precipitation 0.00 in - - ()
Sea Level Pressure  
Sea Level Pressure 30.16 in    
Wind  
Wind Speed 3 mph (North)    
Max Wind Speed 9 mph    
Max Gust Speed -    
Visibility 10 miles    
Events      
Averages and records for this station are not official NWS values.
T = Trace of Precipitation, MM = Missing Value Source: NWS Daily Summary

Daily Weather History Graph

Daily Weather History Graph

Search for Another Location

Airport or City:

Trip Planner

Search our weather history database for the weather conditions in past years. The results will help you decide how hot, cold, wet, or windy it might be!

Date:

Astronomy

Nov. 04, 2012 Rise Set
Actual Time 7:10 AM EST 5:23 PM EST
Civil Twilight 6:41 AM EST 5:52 PM EST
Nautical Twilight 6:08 AM EST 6:25 PM EST
Astronomical Twilight 5:35 AM EST 6:58 PM EST
Moon 9:59 PM EST (11/4) 11:54 AM EST (11/4)
Length of Visible Light 11h 11m
Length of Day
10h 13m
Waning Gibbous, 72% of the Moon is Illuminated
Nov 4
Waning Gibbous
Nov 6
Last Quarter
Nov 13
New
Nov 20
First Quarter
Nov 28
Full

Hourly Weather History & Observations

Time (EST) Temp. Windchill Dew Point Humidity Pressure Visibility Wind Dir Wind Speed Gust Speed Precip Events Conditions
12:14 AM 37.4 °F 32.1 °F 30.2 °F 75% 30.16 in 10.0 mi North 6.9 mph - N/A   Overcast
12:34 AM 37.4 °F 32.1 °F 30.2 °F 75% 30.16 in 10.0 mi NNE 6.9 mph - N/A   Overcast
12:54 AM 35.6 °F 32.8 °F 28.4 °F 75% 30.16 in 10.0 mi NNE 3.5 mph - N/A   Overcast
1:14 AM 35.6 °F 32.8 °F 28.4 °F 75% 30.16 in 10.0 mi North 3.5 mph - N/A   Mostly Cloudy
1:35 AM 33.8 °F - 28.4 °F 81% 30.16 in 10.0 mi Calm Calm - N/A   Mostly Cloudy
1:55 AM 33.8 °F 30.8 °F 30.2 °F 87% 30.16 in 10.0 mi North 3.5 mph - N/A   Mostly Cloudy
1:15 AM 35.6 °F 32.8 °F 30.2 °F 81% 30.16 in 10.0 mi North 3.5 mph - N/A   Overcast
1:35 AM 35.6 °F 30.7 °F 28.4 °F 75% 30.16 in 10.0 mi North 5.8 mph - N/A   Overcast
1:55 AM 35.6 °F 30.7 °F 30.2 °F 81% 30.16 in 10.0 mi North 5.8 mph - N/A   Overcast
2:15 AM 35.6 °F 32.8 °F 30.2 °F 81% 30.16 in 10.0 mi North 3.5 mph - N/A   Overcast
2:35 AM 35.6 °F - 28.4 °F 75% 30.15 in 10.0 mi Calm Calm - N/A   Overcast
2:55 AM 35.6 °F 32.8 °F 28.4 °F 75% 30.15 in 10.0 mi NNE 3.5 mph - N/A   Overcast
3:15 AM 33.8 °F 29.6 °F 28.4 °F 81% 30.15 in 10.0 mi North 4.6 mph - N/A   Scattered Clouds
3:36 AM 35.6 °F - 28.4 °F 75% 30.14 in 10.0 mi Calm Calm - N/A   Scattered Clouds
3:51 AM 33.8 °F - 28.4 °F 81% 30.15 in 10.0 mi Calm Calm - N/A   Mostly Cloudy
4:11 AM 33.8 °F - 28.4 °F 81% 30.15 in 10.0 mi Calm Calm - N/A   Overcast
4:31 AM 33.8 °F - 28.4 °F 81% 30.16 in 10.0 mi Calm Calm - N/A   Overcast
4:51 AM 33.8 °F 29.6 °F 28.4 °F 81% 30.17 in 10.0 mi NNW 4.6 mph - N/A   Overcast
5:11 AM 33.8 °F 28.6 °F 28.4 °F 81% 30.17 in 10.0 mi North 5.8 mph - N/A   Overcast
5:31 AM 33.8 °F 28.6 °F 28.4 °F 81% 30.17 in 10.0 mi NNW 5.8 mph - N/A   Overcast
5:51 AM 33.8 °F 30.8 °F 28.4 °F 81% 30.17 in 10.0 mi North 3.5 mph - N/A   Overcast
6:11 AM 33.8 °F 29.6 °F 28.4 °F 81% 30.16 in 10.0 mi North 4.6 mph - N/A   Overcast
6:31 AM 33.8 °F - 28.4 °F 81% 30.16 in 10.0 mi Calm Calm - N/A   Overcast
6:52 AM 33.8 °F 29.6 °F 28.4 °F 81% 30.16 in 10.0 mi North 4.6 mph - N/A   Overcast
7:12 AM 33.8 °F 29.6 °F 28.4 °F 81% 30.17 in 10.0 mi NNW 4.6 mph - N/A   Overcast
7:32 AM 33.8 °F 29.6 °F 28.4 °F 81% 30.18 in 10.0 mi NW 4.6 mph - N/A   Overcast
7:52 AM 33.8 °F 29.6 °F 28.4 °F 81% 30.19 in 10.0 mi NNW 4.6 mph - N/A   Overcast
8:12 AM 33.8 °F 29.6 °F 28.4 °F 81% 30.19 in 10.0 mi North 4.6 mph - N/A   Overcast
8:32 AM 35.6 °F 29.9 °F 28.4 °F 75% 30.19 in 10.0 mi North 6.9 mph - N/A   Overcast
8:52 AM 35.6 °F 29.2 °F 28.4 °F 75% 30.19 in 10.0 mi North 8.1 mph - N/A   Overcast
9:12 AM 35.6 °F 28.6 °F 28.4 °F 75% 30.19 in 10.0 mi North 9.2 mph - N/A   Overcast
9:32 AM 37.4 °F 31.4 °F 28.4 °F 70% 30.18 in 10.0 mi NNW 8.1 mph - N/A   Mostly Cloudy
9:52 AM 37.4 °F 31.4 °F 28.4 °F 70% 30.18 in 10.0 mi North 8.1 mph - N/A   Mostly Cloudy
10:12 AM 39.2 °F 33.6 °F 28.4 °F 65% 30.18 in 10.0 mi North 8.1 mph - N/A   Scattered Clouds
10:33 AM 39.2 °F 34.2 °F 28.4 °F 65% 30.17 in 10.0 mi North 6.9 mph - N/A   Scattered Clouds
10:53 AM 39.2 °F 35.0 °F 28.4 °F 65% 30.17 in 10.0 mi NNE 5.8 mph - N/A   Mostly Cloudy
11:13 AM 39.2 °F 37.0 °F 26.6 °F 61% 30.17 in 10.0 mi NNE 3.5 mph - N/A   Overcast
11:33 AM 39.2 °F - 26.6 °F 61% 30.17 in 10.0 mi Calm Calm - N/A   Overcast
11:53 AM 39.2 °F - 26.6 °F 61% 30.17 in 10.0 mi Calm Calm - N/A   Overcast
12:13 PM 39.2 °F - 26.6 °F 61% 30.17 in 10.0 mi Calm Calm - N/A   Overcast
12:33 PM 39.2 °F - 26.6 °F 61% 30.17 in 10.0 mi Calm Calm - N/A   Overcast
12:53 PM 39.2 °F 35.9 °F 26.6 °F 61% 30.16 in 10.0 mi NW 4.6 mph - N/A   Overcast
1:13 PM 39.2 °F 37.0 °F 26.6 °F 61% 30.16 in 10.0 mi NNE 3.5 mph - N/A   Overcast
1:34 PM 41.0 °F 39.0 °F 26.6 °F 57% 30.15 in 10.0 mi West 3.5 mph - N/A   Mostly Cloudy
1:54 PM 41.0 °F - 26.6 °F 57% 30.15 in 10.0 mi Calm Calm - N/A   Overcast
2:14 PM 41.0 °F - 26.6 °F 57% 30.15 in 10.0 mi Calm Calm - N/A   Overcast
2:34 PM 41.0 °F - 26.6 °F 57% 30.15 in 10.0 mi Calm Calm - N/A   Overcast
2:54 PM 41.0 °F 39.0 °F 26.6 °F 57% 30.15 in 10.0 mi ENE 3.5 mph - N/A   Overcast
3:14 PM 41.0 °F - 26.6 °F 57% 30.15 in 10.0 mi Calm Calm - N/A   Overcast
3:34 PM 41.0 °F - 26.6 °F 57% 30.15 in 10.0 mi Calm Calm - N/A   Overcast
3:54 PM 41.0 °F - 28.4 °F 61% 30.15 in 10.0 mi Calm Calm - N/A   Overcast
4:14 PM 41.0 °F - 28.4 °F 61% 30.15 in 10.0 mi Calm Calm - N/A   Overcast
4:34 PM 41.0 °F - 28.4 °F 61% 30.14 in 10.0 mi Calm Calm - N/A   Overcast
4:55 PM 41.0 °F - 28.4 °F 61% 30.14 in 10.0 mi Calm Calm - N/A   Overcast
5:15 PM 41.0 °F - 28.4 °F 61% 30.14 in 10.0 mi Calm Calm - N/A   Overcast
5:35 PM 39.2 °F - 26.6 °F 61% 30.14 in 10.0 mi Calm Calm - N/A   Overcast
5:55 PM 39.2 °F - 28.4 °F 65% 30.15 in 10.0 mi Calm Calm - N/A   Overcast
6:15 PM 39.2 °F - 26.6 °F 61% 30.15 in 10.0 mi Calm Calm - N/A   Overcast
6:35 PM 39.2 °F - 26.6 °F 61% 30.15 in 10.0 mi Calm Calm - N/A   Overcast
6:55 PM 39.2 °F - 28.4 °F 65% 30.15 in 10.0 mi Calm Calm - N/A   Overcast
7:15 PM 39.2 °F - 28.4 °F 65% 30.16 in 10.0 mi Calm Calm - N/A   Overcast
7:36 PM 39.2 °F - 28.4 °F 65% 30.16 in 10.0 mi Calm Calm - N/A   Overcast
7:51 PM 39.2 °F - 28.4 °F 65% 30.16 in 10.0 mi Calm Calm - N/A   Overcast
8:11 PM 39.2 °F - 28.4 °F 65% 30.16 in 10.0 mi Calm Calm - N/A   Overcast
8:31 PM 39.2 °F - 28.4 °F 65% 30.16 in 10.0 mi Calm Calm - N/A   Overcast
8:51 PM 39.2 °F - 26.6 °F 61% 30.16 in 10.0 mi Calm Calm - N/A   Overcast
9:11 PM 37.4 °F - 28.4 °F 70% 30.16 in 10.0 mi Calm Calm - N/A   Overcast
9:31 PM 37.4 °F - 28.4 °F 70% 30.16 in 10.0 mi Calm Calm - N/A   Overcast
9:51 PM 39.2 °F - 26.6 °F 61% 30.16 in 10.0 mi Calm Calm - N/A   Overcast
10:11 PM 37.4 °F - 26.6 °F 65% 30.16 in 10.0 mi Calm Calm - N/A   Overcast
10:31 PM 37.4 °F 34.9 °F 28.4 °F 70% 30.16 in 10.0 mi NNW 3.5 mph - N/A   Overcast
10:51 PM 37.4 °F - 26.6 °F 65% 30.16 in 10.0 mi Calm Calm - N/A   Overcast